Location: Unspecified
(10.5000°N, 0.0000°E)
Time: 18:55:27
(UTC+00:00)

Envisat - Pass Details

Date: 21 June 2019
Orbit: 764 x 766 km, 98.1° (Epoch: 25 August)

Event Time Altitude Azimuth Distance (km) Brightness Sun altitude
Rises 18:50:27 0° 172° (S) 3,220 5.9 -6.7°
Reaches altitude 10° 18:52:46 10° 174° (S) 2,295 5.2 -7.3°
Maximum altitude 18:57:48 73° 258° (WSW) 800 3.3 -8.4°
Drops below altitude 10° 19:02:51 10° 343° (NNW) 2,295 6.1 -9.5°
Sets 19:05:09 0° 345° (NNW) 3,221 6.9 -10.0°
